Location: Indian Springs
(36.5700°N, 115.6700°W)
Time: 04:37:04
(UTC-08:00)

Amateur Radio Satellites - All Passes

Search period start: 26 November 2014 04:07
Search period end: 27 November 2014 04:07
Location: Indian Springs, 36.5700°N, 115.6700°W

Satellite Date Start Highest point End Downlink Frequencies (MHz)
Time Altitude Azimuth
O/OREOS (USA 219) 26 Nov 04:08:48 04:10:15 11° 98° (E) 04:11:42 437.305
AIST 2 26 Nov 04:16:45 04:19:46 18° 49° (NE) 04:22:46 435.215
ISS 26 Nov 04:33:00 04:35:18 17° 28° (NNE) 04:37:36 145.825
PCSat 26 Nov 04:34:21 04:39:48 78° 63° (ENE) 04:45:12 145.827
SO-50 26 Nov 04:35:26 04:38:13 16° 315° (NW) 04:41:04 436.795
PRISM 26 Nov 04:43:23 04:47:24 47° 73° (ENE) 04:51:29 437.425
BEESAT 3 26 Nov 05:03:32 05:07:41 66° 243° (WSW) 05:11:47 437.485
AO-7 26 Nov 05:10:30 05:18:14 44° 296° (WNW) 05:25:57 29.400- 29.500
JAS-2 26 Nov 05:12:19 05:19:22 83° 285° (WNW) 05:25:30 435.910
MOZHAYETS 4 26 Nov 05:13:03 05:15:40 15° 268° (W) 05:18:18
CUBESAT XI-V 26 Nov 05:15:41 05:20:03 39° 72° (ENE) 05:24:27 437.345
BEESAT 2 26 Nov 05:19:12 05:23:15 48° 245° (WSW) 05:27:15 435.950
Cubesat XI-IV 26 Nov 05:32:34 05:37:33 40° 99° (E) 05:42:30 437.490
O/OREOS (USA 219) 26 Nov 05:44:42 05:49:06 55° 293° (WNW) 05:53:30 437.305
STRAND 1 26 Nov 05:50:01 05:55:10 89° 76° (ENE) 06:00:21 437.568
AIST 2 26 Nov 05:54:32 05:58:36 42° 245° (WSW) 06:02:35 435.215
GONETS M04 26 Nov 05:55:55 05:58:30 12° 75° (ENE) 06:01:06
ISS 26 Nov 06:08:56 06:12:11 58° 224° (SW) 06:15:26 145.825
CUTE-I 26 Nov 06:13:41 06:19:01 83° 285° (WNW) 06:24:19 437.470
PCSat 26 Nov 06:20:40 06:22:27 12° 258° (WSW) 06:24:15 145.827
PRISM 26 Nov 06:21:34 06:23:12 12° 268° (W) 06:24:51 437.425
AIST 1 26 Nov 06:41:05 06:45:26 65° 265° (W) 06:49:43
CUBESAT XI-V 26 Nov 06:54:21 06:57:36 18° 267° (W) 07:00:53 437.345
JAS-2 26 Nov 07:00:00 07:03:05 14° 305° (NW) 07:06:02 435.910
Cubesat XI-IV 26 Nov 07:13:15 07:17:22 23° 294° (WNW) 07:21:28 437.490
HO-68 26 Nov 07:20:27 07:24:56 17° 92° (E) 07:29:22 435.675
GONETS M04 26 Nov 07:44:55 07:53:40 75° 93° (E) 08:02:30
BRITE-PL 26 Nov 07:52:20 07:55:19 19° 95° (E) 07:58:20 437.365/2234.400
SEEDS 26 Nov 07:57:17 08:00:29 20° 95° (E) 08:03:41 437.485
AAUSAT CUBESAT 2 26 Nov 08:13:20 08:16:43 23° 95° (E) 08:20:05 437.432
DOVE 4 26 Nov 08:16:36 08:19:39 19° 95° (E) 08:22:45 437.250
CANX-2 26 Nov 08:24:58 08:29:12 56° 100° (E) 08:33:25 2200.000
DX 1 26 Nov 08:28:12 08:30:31 14° 93° (E) 08:32:49 434.975-435.025
COMPASS 1 26 Nov 08:28:22 08:32:23 39° 98° (E) 08:36:22 437.405
QB50P1 26 Nov 08:42:37 08:44:28 13° 65° (ENE) 08:46:19 145.935-145.965
TIGRISAT 26 Nov 08:44:09 08:47:09 19° 68° (ENE) 08:50:09 435.000
CINEMA 3 26 Nov 08:49:35 08:53:15 28° 97° (E) 08:57:01 145.822/145.860
BUGSAT 1 26 Nov 08:51:14 08:53:14 13° 66° (ENE) 08:55:13 437.445
ZACube-1 26 Nov 08:56:42 08:59:08 15° 93° (E) 09:01:34 437.345
UNISAT 6 26 Nov 08:57:19 09:00:55 27° 70° (ENE) 09:04:31 437.425
GOMX 1 26 Nov 08:59:15 09:03:26 87° 103° (ESE) 09:07:44 467.674
CUTE 1.7 & AOD 2 26 Nov 08:59:36 09:03:50 60° 285° (WNW) 09:08:04 437.475
POPSAT HIP 1 26 Nov 09:05:45 09:09:07 23° 69° (ENE) 09:12:29 437.405
HO-68 26 Nov 09:06:03 09:13:14 75° 288° (WNW) 09:20:20 435.675
AISAT 26 Nov 09:25:13 09:28:27 20° 95° (E) 09:31:39 437.250
ANTELSAT 26 Nov 09:25:26 09:29:38 59° 75° (ENE) 09:33:50 437.575/2403.000
UKube-1 26 Nov 09:26:40 09:31:00 69° 102° (ESE) 09:35:18 .
BRITE-PL 26 Nov 09:30:19 09:33:52 28° 289° (WNW) 09:37:27 437.365/2234.400
FUNcube-1 26 Nov 09:30:22 09:34:18 36° 98° (E) 09:38:18 145.935
SEEDS 26 Nov 09:32:37 09:36:18 29° 289° (WNW) 09:40:00 437.485
Oscar 11 26 Nov 09:37:41 09:42:02 72° 284° (WNW) 09:46:21 145.826/435.025
POLYITAN 1 26 Nov 09:38:37 09:42:48 57° 75° (ENE) 09:46:58 437.675
QB50P2 26 Nov 09:40:27 09:44:38 61° 75° (ENE) 09:48:51 145.880/145.840
GONETS M04 26 Nov 09:45:04 09:51:21 21° 293° (WNW) 09:57:41
DUCHIFAT 1 26 Nov 09:46:11 09:50:25 70° 76° (ENE) 09:54:39 145.980
AAUSAT CUBESAT 2 26 Nov 09:48:50 09:52:19 25° 290° (WNW) 09:55:49 437.432
DELFI C3 26 Nov 09:51:34 09:55:38 55° 285° (WNW) 09:59:40 145.870
DOVE 4 26 Nov 09:53:49 09:57:26 29° 288° (WNW) 10:01:10 437.250
UWE-3 26 Nov 09:57:13 10:01:29 87° 283° (WNW) 10:05:51 435.000/436.395/437.385
CUBEBUG 2 26 Nov 09:57:49 10:02:04 73° 284° (WNW) 10:06:26 437.445
50 SAT 26 Nov 09:58:01 10:01:47 36° 98° (E) 10:05:34 437.505
DX 1 26 Nov 10:02:50 10:06:56 43° 288° (WNW) 10:11:01 434.975-435.025
CANX-2 26 Nov 10:03:10 10:04:37 12° 295° (WNW) 10:06:04 2200.000
COMPASS 1 26 Nov 10:05:15 10:07:46 16° 293° (WNW) 10:10:17 437.405
NANOSAT C BR1 26 Nov 10:05:41 10:09:55 67° 259° (WSW) 10:14:10 145.865
HUMSAT D 26 Nov 10:11:37 10:15:48 69° 101° (ESE) 10:19:59 437.325/437.525
QB50P1 26 Nov 10:15:46 10:19:54 50° 260° (W) 10:24:03 145.935-145.965
TIGRISAT 26 Nov 10:19:54 10:23:41 31° 263° (W) 10:27:29 435.000
BUGSAT 1 26 Nov 10:24:10 10:28:18 48° 260° (W) 10:32:25 437.445
CINEMA 3 26 Nov 10:27:06 10:30:19 21° 290° (WNW) 10:33:36 145.822/145.860
ZACube-1 26 Nov 10:31:40 10:35:38 40° 287° (WNW) 10:39:40 437.345
VELOX 1 26 Nov 10:34:16 10:38:39 66° 285° (WNW) 10:43:00 145.980
ESTCUBE 1 26 Nov 10:34:24 10:38:44 44° 99° (E) 10:43:02 437.505/2401.250
UNISAT 6 26 Nov 10:34:25 10:37:41 21° 265° (W) 10:40:58 437.425
POPSAT HIP 1 26 Nov 10:41:21 10:44:54 25° 264° (W) 10:48:27 437.405
TISAT 1 26 Nov 10:48:46 10:50:49 13° 93° (E) 10:52:51 437.305
HO-68 26 Nov 10:56:48 10:59:43 13° 306° (NW) 11:02:37 435.675
SPROUT 26 Nov 10:59:25 11:02:05 16° 93° (E) 11:04:45 437.525
AISAT 26 Nov 11:01:11 11:05:06 32° 289° (WNW) 11:09:01 437.250
FUNcube-1 26 Nov 11:07:40 11:10:23 17° 292° (WNW) 11:13:07 145.935
CUBEBUG 1 26 Nov 11:12:02 11:16:23 70° 284° (WNW) 11:20:40 437.445
SO-50 26 Nov 11:26:50 11:31:09 31° 52° (NE) 11:35:29 436.795
50 SAT 26 Nov 11:34:24 11:36:47 15° 293° (WNW) 11:39:10 437.505
Oscar 19 26 Nov 11:35:24 11:39:32 25° 68° (ENE) 11:43:40 437.125/150
SWISSCUBE 26 Nov 11:58:58 12:01:16 13° 92° (E) 12:03:33 437.505
YUBILEINY 26 Nov 12:08:52 12:16:10 29° 71° (ENE) 12:23:23 435.215
ESTCUBE 1 26 Nov 12:12:28 12:15:13 16° 294° (WNW) 12:17:58 437.505/2401.250
AUBIESAT-1 26 Nov 12:19:55 12:23:54 24° 99° (E) 12:27:45 437.475
CUSAT 1 26 Nov 12:21:28 12:24:14 67° 98° (E) 12:26:48 437.405
TISAT 1 26 Nov 12:22:52 12:26:51 42° 287° (WNW) 12:30:48 437.305
M-CUBED/EXP-1 PRIME 26 Nov 12:25:14 12:29:35 30° 101° (E) 12:33:47 437.505
BEESAT 26 Nov 12:28:29 12:32:30 26° 96° (E) 12:36:29 436.000
ITAMSAT 1 26 Nov 12:29:03 12:33:39 32° 69° (ENE) 12:38:15 435.822/435.867
SPROUT 26 Nov 12:34:21 12:38:17 36° 288° (WNW) 12:42:11 437.525
PHONESAT 2.4 26 Nov 12:36:03 12:38:08 15° 143° (SE) 12:40:14 2401.200-2431.200
VERMONT LUNAR 26 Nov 12:44:04 12:47:00 23° 147° (SSE) 12:49:56 437.305
DANDE 26 Nov 12:49:43 12:52:30 45° 280° (W) 12:55:02 436.750
HORYU 2 26 Nov 13:01:52 13:03:59 13° 65° (ENE) 13:06:07 437.375
Gurwin Techsat 1B 26 Nov 13:03:59 13:08:53 40° 71° (ENE) 13:13:48 435.225
SO-50 26 Nov 13:07:23 13:11:38 30° 248° (WSW) 13:15:53 436.795
Oscar 19 26 Nov 13:14:05 13:18:41 34° 263° (W) 13:23:18 437.125/150
RS-15 26 Nov 13:16:58 13:20:46 12° 97° (E) 13:24:32 29.354- 29.394
ITUPSAT 1 26 Nov 13:23:54 13:28:43 80° 284° (WNW) 13:33:30 437.325
SWISSCUBE 26 Nov 13:34:45 13:39:26 55° 287° (WNW) 13:44:05 437.505
STARS 26 Nov 13:41:37 13:44:53 20° 95° (E) 13:48:09 437.465
AUBIESAT-1 26 Nov 13:54:26 13:58:52 35° 294° (WNW) 14:03:10 437.475
M-CUBED/EXP-1 PRIME 26 Nov 14:00:16 14:04:28 28° 296° (WNW) 14:08:34 437.505
YUBILEINY 26 Nov 14:04:55 14:13:19 55° 270° (W) 14:21:40 435.215
BEESAT 26 Nov 14:06:11 14:10:16 28° 291° (WNW) 14:14:19 436.000
ITAMSAT 1 26 Nov 14:08:43 14:13:05 27° 264° (W) 14:17:29 435.822/435.867
PHONESAT 2.4 26 Nov 14:12:49 14:16:30 70° 157° (SSE) 14:20:13 2401.200-2431.200
AO-7 26 Nov 14:14:07 14:21:47 44° 64° (ENE) 14:29:28 29.400- 29.500
O/OREOS (USA 219) 26 Nov 14:18:58 14:21:49 16° 59° (ENE) 14:24:39 437.305
VERMONT LUNAR 26 Nov 14:21:37 14:25:14 80° 341° (NNW) 14:28:52 437.305
KKS-1 26 Nov 14:22:34 14:27:02 87° 283° (WNW) 14:31:28 437.445
MaSat-1 26 Nov 14:34:11 14:37:10 56° 294° (WNW) 14:39:54 437.345
HORYU 2 26 Nov 14:35:54 14:40:12 51° 260° (W) 14:44:32 437.375
Gurwin Techsat 1B 26 Nov 14:44:50 14:48:56 23° 265° (W) 14:53:03 435.225
STARS 26 Nov 15:17:32 15:21:23 31° 289° (WNW) 15:25:14 437.465
JAS-2 26 Nov 15:19:42 15:26:35 38° 67° (ENE) 15:33:40 435.910
RS-15 26 Nov 15:20:08 15:31:02 73° 115° (ESE) 15:41:53 29.354- 29.394
MOZHAYETS 4 26 Nov 15:33:23 15:35:38 13° 92° (E) 15:37:53
PHONESAT 2.4 26 Nov 15:51:50 15:55:26 47° 353° (N) 15:59:03 2401.200-2431.200
CUTE-I 26 Nov 15:56:03 15:59:01 15° 63° (ENE) 16:01:59 437.470
O/OREOS (USA 219) 26 Nov 15:57:11 16:01:25 43° 255° (WSW) 16:05:39 437.305
VERMONT LUNAR 26 Nov 16:00:29 16:03:58 42° 358° (N) 16:07:27 437.305
AO-7 26 Nov 16:06:58 16:14:31 39° 261° (W) 16:22:09 29.400- 29.500
Cubesat XI-IV 26 Nov 16:52:07 16:57:18 53° 72° (ENE) 17:02:31 437.490
JAS-2 26 Nov 17:04:16 17:11:22 43° 263° (W) 17:18:47 435.910
MOZHAYETS 4 26 Nov 17:08:36 17:13:08 52° 286° (WNW) 17:17:38
CUBESAT XI-V 26 Nov 17:17:24 17:18:58 12° 91° (E) 17:20:32 437.345
PHONESAT 2.4 26 Nov 17:30:55 17:34:34 52° 10° (N) 17:38:13 2401.200-2431.200
CUTE-I 26 Nov 17:33:11 17:38:30 65° 258° (WSW) 17:43:50 437.470
PCSat 26 Nov 17:33:27 17:36:02 14° 103° (ESE) 17:38:38 145.827
RS-15 26 Nov 17:34:48 17:44:18 33° 318° (NW) 17:53:55 29.354- 29.394
VERMONT LUNAR 26 Nov 17:39:07 17:42:44 65° 15° (NNE) 17:46:21 437.305
HO-68 26 Nov 17:50:28 17:52:04 11° 53° (NE) 17:53:41 435.675
GONETS M04 26 Nov 17:58:56 18:06:41 33° 73° (ENE) 18:14:19
STRAND 1 26 Nov 18:03:28 18:08:10 36° 98° (E) 18:12:50 437.568
PRISM 26 Nov 18:04:27 18:08:40 69° 285° (WNW) 18:12:50 437.425
Cubesat XI-IV 26 Nov 18:34:13 18:37:39 17° 267° (W) 18:41:07 437.490
SEEDS 26 Nov 18:49:42 18:50:56 11° 65° (ENE) 18:52:10 437.485
CUBESAT XI-V 26 Nov 18:52:10 18:56:46 59° 285° (WNW) 19:01:18 437.345
BEESAT 3 26 Nov 18:56:17 19:00:08 42° 115° (ESE) 19:04:03 437.485
BRITE-PL 26 Nov 19:00:54 19:04:36 21° 70° (ENE) 19:08:07 437.365/2234.400
AAUSAT CUBESAT 2 26 Nov 19:04:21 19:06:02 12° 66° (ENE) 19:07:43 437.432
AIST 1 26 Nov 19:07:49 19:12:12 84° 96° (E) 19:16:38
PHONESAT 2.4 26 Nov 19:09:47 19:13:25 52° 206° (SSW) 19:17:01 2401.200-2431.200
BEESAT 2 26 Nov 19:12:13 19:16:14 59° 117° (ESE) 19:20:20 435.950
PCSat 26 Nov 19:13:25 19:18:47 69° 298° (WNW) 19:24:12 145.827
CANX-2 26 Nov 19:16:13 19:19:52 29° 71° (ENE) 19:23:32 2200.000
VERMONT LUNAR 26 Nov 19:17:49 19:21:06 32° 211° (SSW) 19:24:21 437.305
COMPASS 1 26 Nov 19:18:39 19:21:45 21° 69° (ENE) 19:24:53 437.405
DOVE 4 26 Nov 19:20:55 19:23:50 17° 68° (ENE) 19:26:40 437.250
DX 1 26 Nov 19:24:12 19:24:28 10° 63° (ENE) 19:24:44 434.975-435.025
HO-68 26 Nov 19:31:19 19:38:24 65° 71° (ENE) 19:45:30 435.675
STRAND 1 26 Nov 19:43:08 19:47:07 23° 293° (WNW) 19:51:04 437.568
CINEMA 3 26 Nov 19:50:06 19:53:19 20° 69° (ENE) 19:56:27 145.822/145.860
CUTE 1.7 & AOD 2 26 Nov 19:50:08 19:54:19 69° 76° (ENE) 19:58:32 437.475
AIST 2 26 Nov 19:50:18 19:54:29 75° 118° (ESE) 19:58:46 435.215
GONETS M04 26 Nov 19:55:19 20:03:41 50° 271° (W) 20:11:58
RS-15 26 Nov 19:56:39 20:01:45 14° 352° (N) 20:06:54 29.354- 29.394
GOMX 1 26 Nov 20:04:51 20:09:40 72° 76° (ENE) 20:14:09 467.674
UKube-1 26 Nov 20:19:32 20:23:38 43° 72° (ENE) 20:27:46 .
SEEDS 26 Nov 20:22:09 20:26:15 55° 260° (W) 20:30:23 437.485
AISAT 26 Nov 20:22:16 20:24:45 15° 65° (ENE) 20:27:13 437.250
FUNcube-1 26 Nov 20:25:01 20:28:14 22° 70° (ENE) 20:31:26 145.935
Oscar 11 26 Nov 20:30:00 20:34:14 63° 75° (ENE) 20:38:30 145.826/435.025
BEESAT 3 26 Nov 20:35:47 20:38:33 17° 312° (NW) 20:41:21 437.485
AAUSAT CUBESAT 2 26 Nov 20:37:15 20:41:15 49° 261° (W) 20:45:19 437.432
DELFI C3 26 Nov 20:37:49 20:41:50 65° 76° (ENE) 20:45:54 145.870
BRITE-PL 26 Nov 20:38:16 20:42:55 36° 262° (W) 20:47:16 437.365/2234.400
50 SAT 26 Nov 20:45:43 20:48:28 18° 68° (ENE) 20:51:12 437.505
UWE-3 26 Nov 20:52:25 20:56:33 55° 75° (ENE) 21:00:39 435.000/436.395/437.385
CANX-2 26 Nov 20:52:46 20:55:49 19° 266° (W) 20:58:53 2200.000
BEESAT 2 26 Nov 20:52:46 20:54:54 14° 314° (NW) 20:57:03 435.950
COMPASS 1 26 Nov 20:53:45 20:57:19 27° 264° (W) 21:00:54 437.405
CUBEBUG 2 26 Nov 20:54:01 20:58:16 69° 76° (ENE) 21:02:27 437.445
DX 1 26 Nov 20:55:45 21:00:06 69° 258° (WSW) 21:04:29 434.975-435.025
DOVE 4 26 Nov 20:56:59 21:01:20 39° 261° (W) 21:05:29 437.250
HUMSAT D 26 Nov 21:02:00 21:05:44 34° 72° (ENE) 21:09:29 437.325/437.525
PCSat 26 Nov 21:02:14 21:03:13 10° 317° (NW) 21:04:11 145.827
ISS 26 Nov 21:13:43 21:15:37 15° 128° (SE) 21:17:31 145.825
ANTELSAT 26 Nov 21:21:14 21:23:56 16° 94° (E) 21:26:39 437.575/2403.000
HO-68 26 Nov 21:21:24 21:26:32 21° 266° (W) 21:31:42 435.675
ZACube-1 26 Nov 21:25:20 21:29:32 69° 259° (W) 21:33:42 437.345
CINEMA 3 26 Nov 21:26:29 21:30:21 30° 263° (W) 21:34:07 145.822/145.860
POLYITAN 1 26 Nov 21:29:27 21:30:49 11° 92° (E) 21:32:11 437.675
VELOX 1 26 Nov 21:29:33 21:34:02 82° 76° (ENE) 21:38:31 145.980
QB50P2 26 Nov 21:30:51 21:32:28 12° 92° (E) 21:34:06 145.880/145.840
AIST 2 26 Nov 21:31:59 21:33:38 12° 316° (NW) 21:35:18 435.215
ESTCUBE 1 26 Nov 21:32:06 21:36:04 31° 70° (ENE) 21:40:05 437.505/2401.250
DUCHIFAT 1 26 Nov 21:35:49 21:37:56 14° 93° (E) 21:40:02 145.980
NANOSAT C BR1 26 Nov 21:54:19 21:57:41 23° 96° (E) 22:01:03 145.865
SPROUT 26 Nov 21:54:23 21:54:34 10° 64° (ENE) 21:54:45 437.525
AISAT 26 Nov 21:56:38 22:00:58 47° 260° (W) 22:05:18 437.250
UKube-1 26 Nov 21:57:36 21:59:59 14° 267° (W) 22:02:22 .
FUNcube-1 26 Nov 22:00:55 22:04:27 26° 264° (W) 22:07:58 145.935
QB50P1 26 Nov 22:04:04 22:07:48 30° 97° (E) 22:11:30 145.935-145.965
CUBEBUG 1 26 Nov 22:05:43 22:10:08 71° 76° (ENE) 22:14:34 437.445
BUGSAT 1 26 Nov 22:09:47 22:13:17 27° 97° (E) 22:16:44 437.445
RS-15 26 Nov 22:12:28 22:20:30 22° 30° (NNE) 22:28:42 29.354- 29.394
TIGRISAT 26 Nov 22:13:21 22:17:46 60° 101° (E) 22:22:16 435.000
50 SAT 26 Nov 22:20:00 22:23:33 29° 263° (W) 22:27:06 437.505
UNISAT 6 26 Nov 22:27:32 22:32:01 89° 103° (ESE) 22:36:36 437.425
POPSAT HIP 1 26 Nov 22:28:39 22:32:50 60° 101° (E) 22:37:00 437.405
HUMSAT D 26 Nov 22:39:07 22:41:39 16° 266° (W) 22:44:10 437.325/437.525
ISS 26 Nov 22:48:48 22:51:58 46° 323° (NW) 22:55:09 145.825
ANTELSAT 26 Nov 22:56:39 23:00:52 42° 287° (WNW) 23:05:11 437.575/2403.000
CUSAT 1 26 Nov 22:59:41 23:04:32 50° 81° (E) 23:10:55 437.405
POLYITAN 1 26 Nov 23:02:56 23:07:02 50° 286° (WNW) 23:11:07 437.675
SWISSCUBE 26 Nov 23:04:12 23:06:19 13° 63° (ENE) 23:08:27 437.505
QB50P2 26 Nov 23:04:34 23:08:38 48° 286° (WNW) 23:12:42 145.880/145.840
AUBIESAT-1 26 Nov 23:07:43 23:10:44 20° 61° (ENE) 23:13:57 437.475
ESTCUBE 1 26 Nov 23:09:26 23:12:56 22° 265° (W) 23:16:28 437.505/2401.250
DUCHIFAT 1 26 Nov 23:10:01 23:13:59 42° 287° (WNW) 23:17:57 145.980
TISAT 1 26 Nov 23:12:44 23:17:00 80° 258° (WSW) 23:21:17 437.305
M-CUBED/EXP-1 PRIME 26 Nov 23:13:17 23:16:38 25° 63° (ENE) 23:20:14 437.505
JUGNU 26 Nov 23:23:20 23:26:20 14° 174° (S) 23:29:20 437.505
SPROUT 26 Nov 23:25:47 23:30:04 66° 259° (WSW) 23:34:23 437.525
DANDE 26 Nov 23:29:57 23:34:45 80° 82° (E) 23:41:19 436.750
NANOSAT C BR1 26 Nov 23:30:03 23:33:30 25° 290° (WNW) 23:36:56 145.865
BEESAT 26 Nov 23:33:07 23:36:55 24° 68° (ENE) 23:40:43 436.000
SRMSAT 26 Nov 23:37:34 23:39:01 11° 168° (SSE) 23:40:28 437.500
QB50P1 26 Nov 23:40:27 23:43:29 20° 292° (WNW) 23:46:31 145.935-145.965
BUGSAT 1 26 Nov 23:45:40 23:48:36 20° 292° (WNW) 23:51:31 437.445
TIGRISAT 26 Nov 23:52:24 23:54:01 12° 295° (WNW) 23:55:39 435.000
POPSAT HIP 1 27 Nov 00:07:30 00:08:12 10° 296° (WNW) 00:08:53 437.405
MaSat-1 27 Nov 00:14:36 00:16:55 66° 247° (WSW) 00:19:20 437.345
RS-15 27 Nov 00:24:12 00:35:27 68° 57° (ENE) 00:47:10 29.354- 29.394
ITUPSAT 1 27 Nov 00:28:15 00:33:04 89° 73° (ENE) 00:37:55 437.325
STARS 27 Nov 00:37:47 00:40:09 14° 66° (ENE) 00:42:30 437.465
SWISSCUBE 27 Nov 00:38:51 00:43:36 64° 259° (WSW) 00:48:24 437.505
AUBIESAT-1 27 Nov 00:41:52 00:45:28 32° 259° (W) 00:49:23 437.475
CUSAT 1 27 Nov 00:43:55 00:47:35 19° 267° (W) 00:51:55 437.405
ITAMSAT 1 27 Nov 00:45:56 00:48:25 13° 92° (E) 00:50:52 435.822/435.867
M-CUBED/EXP-1 PRIME 27 Nov 00:48:17 00:51:35 25° 261° (W) 00:55:10 437.505
YUBILEINY 27 Nov 01:06:37 01:14:22 36° 86° (E) 01:22:06 435.215
BEESAT 27 Nov 01:10:19 01:14:34 32° 263° (W) 01:18:51 436.000
JUGNU 27 Nov 01:11:28 01:14:33 14° 185° (S) 01:17:38 437.505
DANDE 27 Nov 01:17:09 01:18:10 11° 269° (W) 01:19:13 436.750
KKS-1 27 Nov 01:18:24 01:22:48 62° 75° (ENE) 01:27:12 437.445
Gurwin Techsat 1B 27 Nov 01:23:29 01:27:12 19° 93° (E) 01:30:55 435.225
SRMSAT 27 Nov 01:24:03 01:27:23 15° 178° (S) 01:30:43 437.500
Oscar 19 27 Nov 01:27:27 01:32:38 80° 285° (WNW) 01:37:48 437.125/150
SO-50 27 Nov 01:41:08 01:43:42 15° 108° (ESE) 01:46:17 436.795
STARS 27 Nov 02:11:59 02:16:13 47° 260° (W) 02:20:28 437.465
AO-7 27 Nov 02:20:52 02:24:53 14° 91° (E) 02:28:52 29.400- 29.500
ITAMSAT 1 27 Nov 02:23:10 02:28:17 62° 286° (WNW) 02:33:21 435.822/435.867
HORYU 2 27 Nov 02:30:03 02:34:12 36° 98° (E) 02:38:20 437.375
MOZHAYETS 4 27 Nov 02:35:43 02:35:57 10° 63° (ENE) 02:36:12
RS-15 27 Nov 02:37:37 02:47:00 32° 255° (WSW) 02:56:46 29.354- 29.394
Gurwin Techsat 1B 27 Nov 03:02:18 03:07:21 46° 288° (WNW) 03:12:23 435.225
YUBILEINY 27 Nov 03:02:37 03:10:54 45° 284° (WNW) 03:19:13 435.215
SRMSAT 27 Nov 03:12:59 03:15:46 13° 188° (S) 03:18:32 437.500
SO-50 27 Nov 03:19:23 03:23:45 49° 304° (NW) 03:28:16 436.795
BEESAT 3 27 Nov 03:19:28 03:21:59 15° 47° (NE) 03:24:29 437.485
BEESAT 2 27 Nov 03:35:29 03:38:35 20° 50° (NE) 03:41:40 435.950
ISS 27 Nov 03:43:53 03:45:19 12° 22° (NNE) 03:46:44 145.825
